[[{"header":{"parameterUnit":"m.s-1","parameterCategory":1,"la1":30.2991,"la2":30.254,"lo1":-89.0895,"lo2":-89.0444,"dy":0.0017,"dx":0.0017,"nx":28,"ny":28,"refTime":"2024-05-03T09:00:00:Z","depth":0,"parameterNumber":2,"parameterNumberName":"U-component_of_WINDS"},"data":[0,0,0,0,0,0,0,0,0,0,0,0,0,0,0,0,0,0,0,0,0,0,0,0,0,0,0,0,0,0,0,0,0,0,0,0,0,0,0,0,0,0,0,0,0,0,0,0,0,0,0,0,0,0,0,0,0,0,-2.4909,-2.4909,0,-2.4978,-2.4979,-2.4979,-2.4928,-2.4926,-2.4924,-2.4922,-2.4992,-2.4996,-2.4999,0,0,0,0,0,0,0,0,0,0,0,0,0,-2.4731,-2.4735,-2.4909,-2.4909,-2.491,-2.4978,-2.4979,-2.498,-2.4929,-2.4926,-2.4923,-2.4921,-2.499,-2.4995,-2.5,0,0,0,0,0,0,0,0,0,0,0,0,0,-2.4805,-2.4736,-2.4908,-2.4893,-2.4892,-2.4977,-2.4979,-2.498,-2.4929,-2.4926,-2.4922,-2.4919,-2.4989,-2.4995,-2.5,-2.5104,0,0,-2.5019,-2.5021,0,0,0,0,0,0,0,0,-2.4801,-2.4812,-2.4894,-2.4894,-2.4894,-2.4941,-2.4942,-2.5022,-2.493,-2.4915,-2.4922,-2.4918,-2.4978,-2.4984,-2.5004,-2.5108,-2.5111,-2.5019,-2.5023,-2.5025,-2.5027,0,0,0,0,0,0,0,-2.4796,-2.4808,-2.4936,-2.4896,-2.4895,-2.4882,-2.4889,-2.4957,-2.4964,-2.4916,-2.4913,-2.4922,-2.4977,-2.4999,-2.5006,-2.5112,-2.5019,-2.5024,-2.5028,-2.503,-2.5302,-2.5305,0,0,0,0,0,0,-2.4792,-2.4804,-2.4934,-2.4938,-2.4838,-2.4888,-2.4896,-2.4929,-2.4963,-2.4965,-2.4924,-2.4919,-2.499,-2.4999,-2.5008,-2.513,-2.5025,-2.5031,-2.5034,-2.5298,-2.5302,-2.5306,0,0,0,0,0,0,-2.4789,-2.4804,-2.4931,-2.487,-2.4885,-2.4895,-2.4933,-2.4932,-2.4954,-2.497,-2.4971,-2.4946,-2.4988,-2.5,-2.508,-2.5132,-2.5033,-2.5039,-2.5294,-2.5299,-2.5304,-2.5377,0,0,0,0,0,0,-2.4784,-2.4803,-2.4843,-2.4872,-2.4889,-2.5003,-2.4936,-2.4936,-2.4965,-2.4958,-2.499,-2.4992,-2.4986,-2.5072,-2.5086,-2.5139,-2.5044,-2.5289,-2.5296,-2.5303,-2.537,-2.5384,-2.5397,0,0,0,0,0,-2.4778,-2.4861,-2.4846,-2.4862,-2.4939,-2.5006,-2.5016,-2.5008,-2.4969,-2.5009,-2.5019,-2.4991,-2.5124,-2.5081,-2.5096,-2.5151,-2.5286,-2.5294,-2.5302,-2.5364,-2.5381,-2.5396,0,0,0,0,0,0,-2.4839,-2.4865,-2.4848,-2.4943,-2.4973,-2.4997,-2.5047,-2.5027,-2.5068,-2.506,-2.5048,-2.5056,-2.514,-2.5154,-2.5105,-2.5253,-2.5199,-2.5211,-2.524,-2.5257,-2.527,-2.5265,-2.5048,0,0,0,0,0,-2.4864,-2.4916,-2.4936,-2.5018,-2.5034,-2.5038,-2.5067,-2.5058,-2.5088,-2.5101,-2.5116,-2.5146,-2.5194,-2.5227,-2.5272,-2.5372,-2.5377,-2.5417,-2.5431,-2.5441,-2.5451,-2.5503,-2.5521,-2.5333,-2.5333,-2.5333,0,0,-2.4915,-2.4936,-2.497,-2.5031,-2.5053,-2.5107,-2.5049,-2.5109,-2.5148,-2.511,-2.5186,-2.5199,-2.5232,-2.5322,-2.5362,-2.5336,-2.5505,-2.5452,-2.546,-2.5465,-2.5514,-2.5531,-2.5547,-2.5339,-2.5338,-2.5337,0,0,-2.5036,-2.5058,-2.5128,-2.5151,-2.5184,-2.5187,-2.5203,-2.5231,-2.5238,-2.5315,-2.5286,-2.5333,-2.5417,-2.5441,-2.5464,-2.5593,-2.5569,-2.5609,-2.5677,-2.5728,-2.5743,-2.5756,-2.5801,-2.5817,-2.5619,-2.5619,-2.5619,0,-2.5096,-2.5176,-2.5166,-2.5228,-2.5255,-2.5222,-2.5292,-2.5315,-2.5362,-2.5382,-2.5351,-2.5455,-2.5475,-2.557,-2.5601,-2.5621,-2.5639,-2.5605,-2.5742,-2.5755,-2.5767,-2.5809,-2.5826,-2.5623,-2.5623,-2.5622,-2.5622,0,-2.5247,-2.5303,-2.5355,-2.5401,-2.5434,-2.55,-2.55,-2.5534,-2.5523,-2.5528,-2.5606,-2.5628,-2.5677,-2.5699,-2.5689,-2.5792,-2.5774,-2.5744,-2.5689,-2.5789,-2.5829,-2.5845,-2.563,-2.5628,-2.5627,-2.5626,0,0,-2.5408,-2.5447,-2.5467,-2.5486,-2.5521,-2.5564,-2.5627,-2.5675,-2.5704,-2.5738,-2.579,-2.5862,-2.5833,-2.5859,-2.5851,-2.5896,-2.5995,-2.5859,-2.586,-2.5882,-2.6108,-2.613,-2.6149,-2.5979,-2.5982,-2.5985,-2.6105,0,-2.553,-2.5641,-2.5633,-2.5738,-2.5788,-2.5758,-2.5813,-2.584,-2.5846,-2.589,-2.5897,-2.5947,-2.5906,-2.5922,-2.5965,-2.5974,-2.604,-2.5965,-2.6027,-2.6029,-2.6018,-2.617,-2.6194,-2.6307,-2.6121,-2.6123,-2.6125,0,-2.5686,-2.5725,-2.5834,-2.5859,-2.588,-2.593,-2.5973,-2.6015,-2.6045,-2.6046,-2.6075,-2.6059,-2.6122,-2.6067,-2.6154,-2.6103,-2.6128,-2.6136,-2.614,-2.6144,-2.6082,-2.6177,-2.6343,-2.6359,-2.615,-2.6148,-2.6146,0,-2.5791,-2.587,-2.5945,-2.5963,-2.5996,-2.6031,-2.6046,-2.6072,-2.6101,-2.6138,-2.6156,-2.62,-2.6224,-2.6258,-2.6254,-2.6214,-2.6342,-2.6286,-2.6343,-2.6344,-2.6371,-2.6369,-2.6541,-2.6389,-2.6389,-2.6389,-2.6388,0,-2.5927,-2.5995,-2.5993,-2.6039,-2.6113,-2.6104,-2.6178,-2.6189,-2.6212,-2.6259,-2.6236,-2.628,-2.6273,-2.6317,-2.6314,-2.6385,-2.6397,-2.6399,-2.6397,-2.64,-2.64,-2.6415,-2.6407,-2.6393,-2.6392,-2.6391,-2.639,0,-2.6056,-2.6058,-2.6138,-2.6161,-2.6169,-2.6222,-2.6242,-2.6285,-2.629,-2.6349,-2.6363,-2.637,-2.642,-2.642,-2.6478,-2.6476,-2.6563,-2.6553,-2.6553,-2.655,-2.6607,-2.6601,-2.6794,-2.6818,-2.6652,-2.6654,-2.6655,0,-2.6142,-2.6194,-2.6222,-2.6252,-2.6269,-2.6318,-2.6346,-2.6339,-2.637,-2.6407,-2.6445,-2.6494,-2.6532,-2.6615,-2.6625,-2.6669,-2.6659,-2.6723,-2.6665,-2.6666,-2.6658,-2.6654,-2.6658,-2.6734,-2.6736,-2.6737,-2.6739,0,-2.6294,-2.6292,-2.6335,-2.6377,-2.6412,-2.6446,-2.6477,-2.6502,-2.6498,-2.6534,-2.6586,-2.6615,-2.6674,-2.6723,-2.6765,-2.6779,-2.6758,-2.6757,-2.6772,-2.6775,-2.6773,-2.6773,-2.6582,-2.6752,-2.6751,-2.675,-2.6749,-2.6749,-2.6403,-2.6447,-2.6473,-2.6521,-2.6543,-2.6572,-2.6614,-2.6623,-2.6666,-2.6713,-2.6706,-2.6763,-2.679,-2.6844,-2.6863,-2.6907,-2.6884,-2.6907,-2.6912,-2.6918,-2.6923,-2.6767,-2.6915,-2.6915,-2.6914,-2.6914,-2.6914,0,-2.6552,-2.6568,-2.6612,-2.6655,-2.6693,-2.667,-2.6702,-2.6735,-2.6785,-2.6812,-2.685,-2.6909,-2.6955,-2.6969,-2.7013,-2.7046,-2.7037,-2.7058,-2.7054,-2.7058,-2.6942,-2.6923,-2.7064,-2.7064,-2.7064,-2.7064,-2.7064,-2.7064,-2.6634,-2.6706,-2.6707,-2.6789,-2.6804,-2.6859,-2.688,-2.6906,-2.6927,-2.6994,-2.7032,-2.704,-2.7061,-2.7107,-2.7148,-2.7151,-2.7167,-2.7192,-2.719,-2.7081,-2.7066,-2.7052,-2.7034,-2.7196,-2.7196,-2.7302,-2.7303,-2.7304]},{"header":{"parameterUnit":"m.s-1","parameterCategory":1,"la1":30.2991,"la2":30.254,"lo1":-89.0895,"lo2":-89.0444,"dy":0.0017,"dx":0.0017,"nx":28,"ny":28,"refTime":"2024-05-03T09:00:00:Z","depth":0,"parameterNumber":3,"parameterNumberName":"V-component_of_WINDS"},"data":[0,0,0,0,0,0,0,0,0,0,0,0,0,0,0,0,0,0,0,0,0,0,0,0,0,0,0,0,0,0,0,0,0,0,0,0,0,0,0,0,0,0,0,0,0,0,0,0,0,0,0,0,0,0,0,0,0,0,1.3329,1.3329,0,1.3356,1.3356,1.3356,1.3322,1.3321,1.3319,1.3318,1.3342,1.3344,1.3345,0,0,0,0,0,0,0,0,0,0,0,0,0,1.3245,1.3247,1.3329,1.3329,1.333,1.3356,1.3356,1.3356,1.3322,1.3321,1.3319,1.3318,1.3341,1.3343,1.3346,0,0,0,0,0,0,0,0,0,0,0,0,0,1.3278,1.3248,1.3329,1.3316,1.3315,1.3355,1.3356,1.3356,1.3322,1.332,1.3319,1.3317,1.3341,1.3343,1.3346,1.34,0,0,1.3354,1.3355,0,0,0,0,0,0,0,0,1.3276,1.3281,1.3317,1.3317,1.3316,1.3334,1.3335,1.3371,1.3323,1.3319,1.3318,1.3316,1.334,1.3343,1.3352,1.3401,1.3402,1.3354,1.3356,1.3357,1.3358,0,0,0,0,0,0,0,1.3274,1.3279,1.3339,1.3318,1.3317,1.3307,1.331,1.3342,1.334,1.332,1.3317,1.3321,1.334,1.3349,1.3352,1.3402,1.3354,1.3357,1.3358,1.3359,1.3496,1.3498,0,0,0,0,0,0,1.3274,1.3278,1.3339,1.334,1.3291,1.3311,1.3313,1.333,1.3339,1.3339,1.3323,1.3319,1.3346,1.3349,1.3353,1.3416,1.3357,1.336,1.3361,1.3494,1.3496,1.3499,0,0,0,0,0,0,1.3272,1.3279,1.3337,1.3308,1.3315,1.3314,1.3333,1.3331,1.3341,1.3342,1.3341,1.3333,1.3344,1.3349,1.3388,1.3417,1.3361,1.3363,1.3492,1.3495,1.3497,1.3544,0,0,0,0,0,0,1.327,1.3279,1.33,1.3309,1.3317,1.3374,1.3334,1.3333,1.3346,1.3342,1.3351,1.3351,1.3343,1.3385,1.3391,1.3419,1.3365,1.3489,1.3493,1.3497,1.354,1.3548,1.3555,0,0,0,0,0,1.3267,1.3311,1.3301,1.3309,1.3343,1.3375,1.338,1.3371,1.3349,1.3369,1.337,1.3351,1.3413,1.3389,1.3396,1.3425,1.3487,1.3492,1.3496,1.3536,1.3546,1.3555,0,0,0,0,0,0,1.3304,1.3312,1.3301,1.335,1.3363,1.337,1.3395,1.3382,1.3399,1.3395,1.3382,1.3384,1.3426,1.343,1.3403,1.3478,1.3446,1.3452,1.3474,1.3484,1.3491,1.349,1.3368,0,0,0,0,0,1.3318,1.3345,1.335,1.3392,1.3399,1.3397,1.341,1.3402,1.3414,1.3419,1.3422,1.3433,1.3455,1.347,1.349,1.354,1.3541,1.3564,1.3572,1.3578,1.3583,1.361,1.362,1.3514,1.3513,1.3513,0,0,1.3347,1.3355,1.3372,1.34,1.3409,1.3435,1.3401,1.343,1.345,1.3423,1.346,1.3463,1.3475,1.352,1.354,1.3524,1.3613,1.3584,1.3589,1.3591,1.3616,1.3626,1.3635,1.3517,1.3516,1.3516,0,0,1.3413,1.3422,1.3459,1.3469,1.3483,1.3481,1.3489,1.3499,1.35,1.3538,1.3518,1.354,1.3579,1.3588,1.3597,1.3668,1.3651,1.3675,1.3715,1.3741,1.375,1.3757,1.3782,1.3791,1.368,1.368,1.3681,0,1.3447,1.3488,1.3479,1.3511,1.3523,1.3501,1.3538,1.3547,1.3567,1.3575,1.3558,1.3605,1.3611,1.3659,1.3676,1.3685,1.3694,1.3674,1.375,1.3757,1.3764,1.3787,1.3797,1.3683,1.3683,1.3683,1.3682,0,1.3529,1.3557,1.3585,1.3606,1.3622,1.3655,1.3651,1.3668,1.3659,1.3658,1.3697,1.3704,1.3725,1.3736,1.3726,1.3781,1.3771,1.3752,1.372,1.3777,1.3799,1.3808,1.3687,1.3686,1.3685,1.3685,0,0,1.3619,1.3635,1.3645,1.3655,1.3669,1.369,1.3723,1.3745,1.3759,1.3774,1.38,1.3833,1.3816,1.3827,1.3818,1.3842,1.3897,1.3819,1.3819,1.3833,1.3958,1.3972,1.3983,1.3886,1.3888,1.3889,1.3957,0,1.3685,1.3743,1.3736,1.3791,1.3817,1.3797,1.3825,1.3836,1.3837,1.3858,1.3858,1.3882,1.3857,1.3863,1.3885,1.3886,1.3922,1.3881,1.391,1.3911,1.3908,1.3995,1.401,1.4073,1.3965,1.3967,1.3968,0,1.377,1.3789,1.3847,1.3858,1.3868,1.3894,1.3914,1.3935,1.3947,1.3946,1.3959,1.3946,1.3978,1.3946,1.3989,1.3961,1.3973,1.3975,1.3977,1.3979,1.3943,1.3999,1.4093,1.4103,1.3982,1.398,1.3979,0,1.383,1.387,1.391,1.3918,1.3932,1.395,1.3956,1.3967,1.3981,1.3998,1.4006,1.4027,1.4037,1.4053,1.4046,1.4023,1.409,1.4058,1.409,1.409,1.4104,1.4103,1.4202,1.4112,1.4112,1.4112,1.4112,0,1.3905,1.3941,1.3937,1.3961,1.4001,1.3992,1.4032,1.4035,1.4045,1.4069,1.4052,1.4075,1.4064,1.4086,1.4081,1.4117,1.4122,1.4122,1.412,1.4123,1.4123,1.413,1.4126,1.4115,1.4114,1.4113,1.4113,0,1.3978,1.3977,1.4019,1.4029,1.4032,1.4061,1.4069,1.4091,1.4091,1.4121,1.4128,1.4127,1.4152,1.4147,1.4174,1.417,1.4216,1.4209,1.4212,1.421,1.4243,1.424,1.4349,1.4363,1.4265,1.4265,1.4266,0,1.4026,1.4053,1.4067,1.4082,1.409,1.4116,1.413,1.4123,1.4138,1.4155,1.4175,1.4199,1.4217,1.4257,1.4258,1.4279,1.4272,1.4309,1.4275,1.4277,1.4272,1.4271,1.4273,1.4315,1.4316,1.4317,1.4318,0,1.4111,1.4109,1.4131,1.4154,1.4172,1.4189,1.4204,1.4217,1.4211,1.4229,1.4255,1.4269,1.4298,1.4321,1.434,1.4345,1.4331,1.4329,1.4337,1.4341,1.4342,1.4342,1.423,1.4326,1.4325,1.4325,1.4324,1.4324,1.4172,1.4196,1.421,1.4235,1.4246,1.426,1.4282,1.4285,1.4307,1.433,1.4324,1.4354,1.4365,1.4389,1.4397,1.4419,1.4405,1.4418,1.4421,1.4424,1.4428,1.4339,1.4423,1.4422,1.4422,1.4422,1.4422,0,1.4256,1.4264,1.4288,1.431,1.433,1.4316,1.4332,1.4349,1.4376,1.4388,1.4407,1.4437,1.446,1.4463,1.4484,1.4501,1.4495,1.4507,1.4506,1.4507,1.4439,1.4429,1.4512,1.4512,1.4512,1.4512,1.4512,1.4512,1.4302,1.4342,1.4342,1.4386,1.4393,1.4423,1.4433,1.4447,1.4456,1.4491,1.451,1.4513,1.4521,1.4543,1.4564,1.4564,1.4572,1.4587,1.4585,1.4521,1.4512,1.4503,1.4494,1.4589,1.4589,1.4651,1.4652,1.4652]}]]